星链-34489 (STARLINK-34489)

导读

STARLINK-34489是美国于北京时间2025年6月28日发射的星链系列卫星,星链是SpaceX打造的低轨卫星互联网星座项目,该卫星承担着为全球偏远地区、海上、航空等场景提供高速互联网接入服务的任务,进一步扩充星链星座组网规模,提升星座覆盖密度与服务稳定性。

基本信息
目录编号:
64679
目录名称:
STARLINK-34489
国际标识:
2025-139R
轨道中心:
EARTH
卫星名称:
星链-34489
卫星全名:
星链-34489 (STARLINK-34489)
卫星状态:
在轨 (已飞行433 天)
发射日期:
2025-06-28 UTC
国别 :
美国 (US)
星等 :
--
轨道信息
数据来源 国际轨道数据
星历时间: 2026-09-04T04:29:46+0800
7小时前
查看轨道信息
半长轴: 6840.834km
偏心率: 0.0001255
轨道倾角: 53.160°
近地点辐角 93.261°
升交点赤经 15.810°
平近点角 266.853°
近地点: 461.838km
远地点: 463.556km
周期: 93.848分钟
每日圈数: 15.344022
详细信息
固有亮度:
5
最大亮度:
2.5
卫星平台:
Starlink V1.0
覆盖范围:
全球
运营商:
太空探索技术公司
运营商所在国:
美国
制造商(研发单位):
太空探索技术公司
制造商所在国:
美国
使用方式:
暂无
卫星简介
Starlink 计划是 SpaceX 推出的全球卫星互联网项目,通过发射低轨道卫星,为全球尤其是偏远地区提供高速、低延迟的互联网服务。自 2019 年起,Starlink 已部署数千颗卫星,旨在缩小全球数字鸿沟,推动互联网普及。该项目还为军事、航空等行业提供通信支持,带来广泛经济效益。
2D轨道图
3D轨道图
轨道高度分析图
轨道倾角分析图
轨道综合分析图
查看轨道综合分析图
交会数据列表
事件ID 空间交会对象 最接近时刻(TCA) 交会距离 交会风险概率(CRP) 交会风险指数(CRI) 操作
CDM_260905-130806-058506-467921
2026-09-05T
13:08:54+0000
0.538 km
远距离
1.535528E-4 高风险 0.79
CDM_260904-163106-207006-467921
2026-09-04T
16:31:06+0000
0.607 km
远距离
7.718384E-5 中风险 0.73
CDM_260904-043505-478006-467922
2026-09-04T
04:35:14+0000
0.679 km
远距离
6.060719E-5 中风险 0.71
CDM_260904-014006-207006-467921
2026-09-04T
01:40:06+0000
0.748 km
远距离
4.122695E-5 中风险 0.67
CDM_260904-031306-207006-467921
2026-09-04T
03:13:53+0000
1.022 km
极远距离
1.456081E-5 中风险 0.58
CDM_260903-165105-478006-467921
2026-09-03T
16:51:48+0000
1.216 km
极远距离
8.689461E-6 低风险 0.54
CDM_260903-151805-478006-467921
2026-09-03T
15:18:00+0000
1.396 km
极远距离
5.449745E-6 低风险 0.5
CDM_260905-025906-058506-467921
2026-09-05T
02:59:14+0000
1.562 km
极远距离
5.16475E-6 低风险 0.49
CDM_260904-192906-033906-467921
2026-09-04T
19:29:01+0000
1.484 km
极远距离
3.368767E-6 低风险 0.46
CDM_260904-180406-207006-467921
2026-09-04T
18:04:53+0000
1.699 km
极远距离
2.718589E-6 低风险 0.44